DW4433 Weather Reports


time (UTC)temp
F
wind
direction
speed
knots
gust
knots
rain 1hr
in
rain 24hr
in
rain mn
in
humidity
%
barometer
mb
20260505191548 58 360 0.0 0.0 0.00 0.00 0.00 36 1010.6
20260505190043 59 360 0.0 0.0 0.00 0.00 0.00 40 1010.7
20260505184539 60 360 0.0 0.0 0.00 0.00 0.00 44 1010.6
20260505183049 60 360 0.0 0.0 0.00 0.00 0.00 49 1010.5
20260505181528 60 360 0.0 1.7 0.00 0.00 0.00 51 1010.5
20260505180024 61 331 0.0 1.7 0.00 0.00 0.00 51 1010.5
20260505174519 62 34 0.0 0.9 0.00 0.00 0.00 51 1010.5
20260505173012 62 26 0.0 0.9 0.00 0.00 0.00 50 1010.6
20260505171509 63 325 0.0 0.9 0.00 0.00 0.00 49 1010.6
20260505170007 63 82 0.0 3.5 0.00 0.00 0.00 48 1010.6
20260505164606 64 355 0.9 5.2 0.00 0.00 0.00 47 1010.6
20260505163053 64 46 0.0 5.2 0.00 0.00 0.00 47 1010.6
20260505161550 64 32 0.0 4.3 0.00 0.00 0.00 47 1010.6
20260505153035 65 299 0.0 7.0 0.00 0.00 0.00 45 1010.7
20260505151529 65 5 0.9 4.3 0.00 0.00 0.00 46 1010.6
20260505124519 64 20 0.9 9.6 0.00 0.00 0.00 49 1011.2
20260505123006 65 54 0.0 6.1 0.00 0.00 0.00 49 1011.2
20260505121501 66 37 0.0 4.3 0.00 0.00 0.00 49 1011.2
20260505120051 66 348 0.0 5.2 0.00 0.00 0.00 49 1011.2
20260505114550 66 17 0.0 5.2 0.00 0.00 0.00 48 1011.2
20260505113039 65 30 0.0 6.1 0.00 0.00 0.00 48 1011.3
20260505111534 64 40 0.0 3.5 0.00 0.00 0.00 42 1011.3
20260505101526 64 288 0.0 3.5 0.00 0.00 0.00 17 1011.4
20260505100021 64 36 0.0 3.5 0.00 0.00 0.00 20 1011.4
20260505094526 65 227 0.0 0.9 0.00 0.00 0.00 7 1011.3
20260505093013 63 94 0.0 4.3 0.00 0.00 0.00 100 1011.4
20260505091509 63 295 0.0 5.2 0.00 0.00 0.00 100 1011.6
20260505090016 62 320 0.0 6.1 0.00 0.00 0.00 100 1011.5
20260505084503 61 30 0.0 6.1 0.00 0.00 0.00 100 1011.5
20260505083103 60 300 0.0 1.7 0.00 0.00 0.00 100 1011.5
20260505081605 58 55 0.0 5.2 0.00 0.00 0.00 100 1011.5
20260505080022 57 16 0.0 1.7 0.00 0.00 0.00 100 1011.7
20260505074518 56 290 0.0 0.9 0.00 0.00 0.00 100 1011.8
20260505073009 56 9 0.0 1.7 0.00 0.00 0.00 100 1011.8
20260505071518 56 333 0.0 1.7 0.00 0.00 0.00 100 1011.9
20260505070001 55 331 0.0 1.7 0.00 0.00 0.00 100 1011.9
20260505064557 55 311 0.0 4.3 0.00 0.00 0.00 100 1011.9
20260505063053 54 355 0.0 0.9 0.00 0.00 0.00 100 1011.8
20260505061549 53 337 0.0 0.9 0.00 0.00 0.00 100 1012.0
20260505060049 53 59 0.0 3.5 0.00 0.00 0.00 100 1012.0
20260505054538 52 55 0.0 1.7 0.00 0.00 0.00 100 1011.9
20260505053033 52 40 0.0 3.5 0.00 0.00 0.00 100 1012.0
20260505051608 52 45 0.0 0.9 0.00 0.00 0.00 100 1012.0
20260505050103 52 30 0.0 1.7 0.00 0.00 0.00 100 1012.0
20260505041540 52 179 0.0 0.0 0.00 0.00 0.00 100 1012.2
20260505040038 52 79 0.0 0.0 0.00 0.00 0.00 100 1012.3
20260505034528 53 33 0.0 0.0 0.00 0.00 0.00 100 1012.5
20260505033024 53 51 0.0 0.0 0.00 0.00 0.00 100 1012.6
20260505031519 53 327 0.0 0.0 0.00 0.00 0.00 100 1012.8
20260505030017 53 11 0.0 0.9 0.00 0.00 0.00 100 1012.8
20260505024512 53 15 0.0 0.0 0.00 0.00 0.00 100 1012.8
20260505023016 53 17 0.0 0.0 0.00 0.00 0.00 100 1012.8
20260505021600 53 17 0.0 0.0 0.00 0.00 0.00 100 1013.0
20260505020056 53 15 0.0 0.0 0.00 0.00 0.00 100 1013.0
20260505014549 53 80 0.0 0.0 0.00 0.00 0.00 100 1013.0
20260505013100 54 80 0.0 0.0 0.00 0.00 0.00 100 1013.2
20260505011540 54 34 0.0 0.0 0.00 0.00 0.00 100 1013.3
20260505010036 54 34 0.0 0.0 0.00 0.00 0.00 100 1013.3
20260505004528 54 34 0.0 0.0 0.00 0.00 0.00 100 1013.3
20260505003024 54 27 0.0 0.0 0.00 0.00 0.00 100 1013.6
20260505001520 54 34 0.0 1.7 0.00 0.00 0.00 100 1013.7
20260505000023 54 41 0.0 0.0 0.00 0.00 0.00 100 1013.8
20260504234509 54 45 0.0 0.0 0.00 0.00 0.00 100 1013.9
20260504233006 55 45 0.0 0.0 0.00 0.00 0.00 100 1013.7
20260504231600 55 45 0.0 0.0 0.00 0.00 0.00 100 1013.8
20260504230021 55 45 0.0 0.0 0.00 0.00 0.00 100 1013.6
20260504224520 55 49 0.0 0.0 0.00 0.00 0.00 100 1013.7
20260504223013 55 49 0.0 0.0 0.00 0.00 0.00 100 1013.8
20260504221508 55 49 0.0 0.0 0.00 0.00 0.00 100 1014.0
20260504220037 55 60 0.0 0.0 0.00 0.00 0.00 100 1014.2
20260504214614 55 200 0.0 0.0 0.00 0.00 0.00 100 1014.2
20260504213059 55 209 0.0 0.0 0.00 0.00 0.00 100 1014.1
20260504211535 55 211 0.0 0.0 0.00 0.00 0.00 100 1014.0
20260504210012 55 211 0.0 0.0 0.00 0.00 0.00 100 1013.9
20260504204537 55 211 0.0 0.0 0.00 0.00 0.00 100 1013.9
20260504203036 55 211 0.0 0.0 0.00 0.00 0.00 100 1014.0
20260504201528 55 211 0.0 0.0 0.00 0.00 0.00 100 1013.9
20260504200023 55 211 0.0 0.0 0.00 0.00 0.00 100 1013.7
20260504194517 55 211 0.0 0.0 0.00 0.00 0.00 100 1013.6
20260504193021 55 211 0.0 0.0 0.00 0.00 0.00 100 1013.5